Mitchell, SD

11:06 AM CST on November 21, 2019 (GMT -0600)
Mitchell Municipal

Weather History for KMHE - June, 2019

Change the Weather History Date:

Monday, June 10, 2019

  Actual Average Record
Temperature  
Mean Temperature 65 °F 68 °F  
Max Temperature 79 °F 79 °F 109 °F (1933)
Min Temperature 50 °F 57 °F 37 °F (1928)
Degree Days  
Heating Degree Days 0 1  
Month to date heating degree days 6 22  
Since 1 June heating degree days 6 22  
Since 1 July heating degree days 7985 7232  
Cooling Degree Days 0 4  
Month to date cooling degree days 56 32  
Year to date cooling degree days 75 72  
Since 1 June cooling degree days 56 32  
Growing Degree Days 14 (Base 50)    
Moisture  
Dew Point 45 °F    
Average Humidity 52    
Maximum Humidity 77    
Minimum Humidity 27    
Precipitation  
Precipitation 0.01 in 0.17 in 2.12 in (2010)
Month to date precipitation 0.08 1.50  
Year to date precipitation 11.92 8.23  
Snow  
Snow 0.00 in - 0.00 in ()
Month to date snowfall 0.0  
Since 1 June snowfall 0.0  
Since 1 July snowfall 67.6  
Snow Depth 0.00 in    
Sea Level Pressure  
Sea Level Pressure 30.24 in    
Wind  
Wind Speed 8 mph (West)    
Max Wind Speed 21 mph    
Max Gust Speed 35 mph    
Visibility 10 miles    
Events Rain    
T = Trace of Precipitation, MM = Missing Value Source: NWS Daily Summary

Daily Weather History Graph

Daily Weather History Graph

Search for Another Location

Airport or City:

Astronomy

Jun. 10, 2019 Rise Set
Actual Time 5:50 AM CDT 9:13 PM CDT
Civil Twilight 5:14 AM CDT 9:49 PM CDT
Nautical Twilight 4:27 AM CDT 10:36 PM CDT
Astronomical Twilight 3:29 AM CDT 11:34 PM CDT
Moon 1:50 PM CDT (6/10) 2:19 AM CDT (6/10)
Length of Visible Light 16h 35m
Length of Day
15h 23m
First Quarter, 55% of the Moon is Illuminated
Jun 10
First Quarter
Jun 17
Full
Jun 25
Last Quarter
Jul 2
New
Jul 9
First Quarter

Hourly Weather History & Observations

Time (CDT) Temp. Dew Point Humidity Pressure Visibility Wind Dir Wind Speed Gust Speed Precip Events Conditions
12:53 AM 53.1 °F 44.1 °F 71% 30.30 in 10.0 mi West 6.9 mph - N/A   Clear
1:53 AM 54.0 °F 44.1 °F 69% 30.29 in 10.0 mi WSW 8.1 mph - N/A   Clear
2:53 AM 54.0 °F 44.1 °F 69% 30.29 in 10.0 mi WSW 8.1 mph - N/A   Clear
3:53 AM 53.1 °F 44.1 °F 71% 30.29 in 10.0 mi West 10.4 mph - N/A   Clear
4:53 AM 53.1 °F 44.1 °F 71% 30.30 in 10.0 mi West 10.4 mph - N/A   Clear
5:53 AM 51.1 °F 44.1 °F 77% 30.30 in 10.0 mi West 9.2 mph - N/A   Clear
6:53 AM 53.1 °F 44.1 °F 71% 30.32 in 10.0 mi West 9.2 mph - N/A   Clear
7:53 AM 57.0 °F 46.0 °F 67% 30.31 in 10.0 mi West 9.2 mph - N/A   Clear
8:53 AM 63.0 °F 48.0 °F 58% 30.32 in 10.0 mi West 6.9 mph - N/A   Clear
9:53 AM 69.1 °F 45.0 °F 42% 30.32 in 10.0 mi WNW 11.5 mph - N/A   Clear
10:53 AM 72.0 °F 44.1 °F 37% 30.31 in 10.0 mi WNW 10.4 mph 19.6 mph N/A   Clear
11:53 AM 73.9 °F 45.0 °F 35% 30.29 in 10.0 mi WNW 11.5 mph - N/A   Clear
12:53 PM 75.0 °F 46.0 °F 36% 30.27 in 10.0 mi WSW 11.5 mph 17.3 mph N/A   Partly Cloudy
1:53 PM 77.0 °F 43.0 °F 30% 30.25 in 10.0 mi West 16.1 mph 23.0 mph N/A   Clear
2:53 PM 77.0 °F 43.0 °F 30% 30.23 in 10.0 mi West 10.4 mph 19.6 mph N/A   Clear
3:53 PM 75.9 °F 43.0 °F 31% 30.21 in 10.0 mi West 10.4 mph 20.7 mph N/A   Scattered Clouds
4:53 PM 78.1 °F 41.0 °F 27% 30.18 in 10.0 mi West 10.4 mph - N/A   Partly Cloudy
5:53 PM 75.9 °F 41.0 °F 29% 30.16 in 10.0 mi WSW 11.5 mph - N/A   Clear
6:53 PM 75.0 °F 42.1 °F 31% 30.14 in 10.0 mi WSW 3.5 mph - N/A   Clear
7:53 PM 75.0 °F 45.0 °F 34% 30.12 in 10.0 mi Calm Calm - N/A   Clear
8:53 PM 69.1 °F 53.1 °F 57% 30.11 in 10.0 mi SE 4.6 mph - N/A   Scattered Clouds
9:53 PM 69.1 °F 46.9 °F 45% 30.12 in 10.0 mi SSW 6.9 mph - N/A   Mostly Cloudy
10:53 PM 71.1 °F 41.0 °F 34% 30.15 in 10.0 mi WSW 5.8 mph - 0.00 in Rain Light Rain
11:53 PM 64.9 °F 48.0 °F 54% 30.17 in 10.0 mi Calm Calm - 0.00 in Rain Light Rain